Regional Weather Roundup
Issued by NWS

Home | Current Version | Previous Version | Text Only | Print | Product List | Glossary On
Versions: 1 2 3 4 5 6 7 8 9 10 11 12 13 14 15 16 17 18 19 20 21 22 23 24 25 26 27 28 29 30 31 32 33 34 35 36 37 38 39 40 41 42 43 44 45 46 47 48 49 50
000
ASUS43 KTOP 232208
RWRKS

WEATHER ROUNDUP FOR KANSAS
NATIONAL WEATHER SERVICE GOODLAND KS
500 PM CDT WED AUG 23 2017

NOTE:  "FAIR" INDICATES FEW OR NO CLOUDS BELOW 12,000 FEET WITH NO
SIGNIFICANT WEATHER AND/OR OBSTRUCTIONS TO VISIBILITY.

KSZ001>006-013>018-027>032-041>047-232300-
NORTHWEST KANSAS

CITY           SKY/WX    TMP DP  RH WIND       PRES   REMARKS
GOODLAND       SUNNY     84  60  44 S16       30.05F
HAYS           SUNNY     85  48  27 S14G20    30.05F
HILL CITY      SUNNY     88  45  22 S12       30.05F
RUSSELL        SUNNY     86  46  24 SE14G20   30.04F
$$

KSZ061>065-074>080-084>089-232300-
SOUTHWEST KANSAS

CITY           SKY/WX    TMP DP  RH WIND       PRES   REMARKS
DODGE CITY     SUNNY     86  50  28 S14G20    30.07F
ELKHART          N/A     81  66  60 SE13        N/A
GARDEN CITY    SUNNY     82  59  45 S8G18     30.07F
GREAT BEND     SUNNY     84  50  30 S9        30.06F
LIBERAL        MOSUNNY   82  64  54 S12G22    30.08F
PRATT          SUNNY     83  46  27 SE5       30.06F
$$

KSZ066>073-081>083-090>101-232300-
SOUTHEAST KANSAS

CITY           SKY/WX    TMP DP  RH WIND       PRES   REMARKS
CHANUTE        SUNNY     80  55  42 E9        30.06F
COFFEYVILLE    SUNNY     83  54  36 N12       30.03F
HUTCHINSON     SUNNY     85  50  29 VRB7      30.05F
MEDICINE LODGE   N/A     85  49  28 E3        30.03F
NEWTON         SUNNY     82  55  39 SE10      30.06F
PARSONS        SUNNY     81  55  40 VRB7      30.06F
WICHITA INTL   SUNNY     84  50  30 E12       30.04F
WICHITA JABRA  SUNNY     81  53  37 E8        30.05F
WICHITA MCCONL SUNNY     84  50  30 E9        30.05F
WINFIELD       SUNNY     83  51  33 E10       30.05F
$$

KSZ007>012-019>026-033>040-048>060-102>105-232300-
NORTHEAST KANSAS

CITY           SKY/WX    TMP DP  RH WIND       PRES   REMARKS
CONCORDIA      SUNNY     80  53  39 SE8       30.06F
EMPORIA        SUNNY     79  54  41 E8        30.07F
LAWRENCE       SUNNY     80  57  45 VRB3      30.07F
MANHATTAN      SUNNY     81  59  47 E9        30.06F
MARYSVILLE     SUNNY     82  52  34 S6        30.07S
OLATHE IND     SUNNY     79  56  45 N8        30.08F
OLATHE EXE     SUNNY     78  55  44 NE8       30.07F
SALINA         SUNNY     89  46  22 SE13      30.04F
TOPEKA BILLARD SUNNY     80  59  48 E6        30.07F
TOPEKA FORBES  SUNNY     80  57  45 E6        30.08F
$$




USA.gov is the U.S. government's official web portal to all federal, state and local government web resources and services.